Location: Ballyeighan
(53.0494°N, 7.9078°W)
Time: 14:18:15
(UTC+00:00)

Daily predictions for brighter satellites

Satellite Brightness Start Highest point End
(mag) Time Altitude Azimuth Time Altitude Azimuth Time Altitude Azimuth
Cosmos 1536 Rocket 3.7 20:46:30 10° NNW 20:50:51 78° W 20:55:12 10° S
Cosmos 1371 Rocket 4.1 20:49:54 10° SSW 20:55:13 89° ESE 21:00:37 10° NNE
Cosmos 292 Rocket 3.9 20:50:49 10° NNW 20:55:37 77° WSW 21:00:21 10° SSE
IRS-1A Rocket 4.5 20:53:13 10° SSE 20:59:02 88° WSW 21:04:58 10° NNW
Cosmos 2228 4.2 20:56:21 10° SE 20:59:34 22° E 21:02:47 10° NE
USA 186 1.6 20:58:49 10° SSE 21:01:24 52° ENE 21:04:04 10° N
Helios 1A Rocket 2.4 20:58:20 10° NNE 21:01:32 80° WNW 21:04:40 10° SSW
Tsikada Rocket 4.5 20:56:39 10° N 21:02:36 46° ENE 21:08:29 10° SE
Okean O Rocket 1.6 20:58:29 10° SSE 21:02:46 73° ENE 21:07:04 10° NNW
Cosmos 1697 Rocket 3.3 20:59:30 10° NW 21:05:01 56° WSW 21:10:28 10° S
Cosmos 1741 Rocket 4.1 21:01:54 10° NNW 21:07:15 88° ENE 21:12:34 10° SSE
ERS-1 Rocket 3.8 21:02:37 10° S 21:07:29 52° W 21:12:24 10° NNW
CZ-4C R/B 2.3 21:04:03 10° S 21:07:53 34° ESE 21:12:39 10° ENE
SL-16 R/B 3.5 21:04:03 10° NNW 21:09:04 30° NE 21:14:02 10° E
Cosmos 1725 Rocket 4.2 21:03:15 10° SSE 21:09:19 54° E 21:15:23 10° NNE
Cosmos 1452 Rocket 4.0 21:04:34 10° S 21:09:25 40° ESE 21:14:16 10° NE
Cosmos 1867 3.7 21:06:32 10° SW 21:11:59 88° NW 21:17:30 10° NE
ATLAS 3B R/B 3.3 21:05:28 10° NW 21:13:09 62° SW 21:20:24 10° SSE
Okean-O 2.6 21:11:18 10° SSE 21:15:40 89° W 21:20:04 10° NNW
Cosmos 968 Rocket 4.2 21:12:38 10° NNW 21:17:43 51° WSW 21:22:46 10° S
Cosmos 1331 Rocket 4.0 21:13:21 10° S 21:18:31 63° ESE 21:23:40 10° NNE
Cosmos 1892 Rocket 3.5 21:14:32 10° N 21:18:54 77° E 21:23:12 10° SSE
Cosmos 2333 Rocket 3.4 21:16:54 10° NNW 21:22:02 33° NE 21:27:08 10° ESE
CZ-4B R/B 3.7 21:19:07 11° SE 21:23:33 53° ENE 21:28:14 10° N
USA 245 4.4 21:19:01 10° SSE 21:24:51 71° ENE 21:30:38 10° N
Cosmos 1455 Rocket 3.1 21:21:21 10° S 21:25:41 60° E 21:30:03 10° NNE
Meteor 2-1 Rocket 4.4 21:21:46 10° SSW 21:27:28 79° WNW 21:33:05 10° NNE
Cosmos 2016 Rocket 4.0 21:22:10 10° S 21:28:22 66° E 21:34:31 10° NNE
SL-08 R/B 3.4 21:24:14 10° NNE 21:29:09 85° WNW 21:33:57 10° SSW
Cosmos 2173 Rocket 4.2 21:24:35 10° SSW 21:30:43 79° WNW 21:36:59 10° N
Okean 1 Rocket 3.5 21:27:29 10° SSW 21:31:50 66° WNW 21:36:16 10° N
Cosmos 1980 Rocket 2.4 21:27:32 10° NW 21:33:14 71° WSW 21:38:33 12° SSE
Cosmos 2084 4.3 21:31:01 10° WSW 21:35:05 53° NW 21:39:09 10° NE
CZ-4 R/B 3.9 21:33:16 10° SW 21:35:24 15° W 21:37:33 10° NW
CZ-4B R/B 2.4 21:33:11 14° SSE 21:35:57 70° ENE 21:39:21 10° N
Cosmos 2061 Rocket 4.3 21:30:16 10° SSE 21:36:13 50° E 21:42:14 10° NNE
Cosmos 1782 2.6 21:33:01 10° S 21:36:27 55° E 21:39:55 10° NNE
SPOT 3 Rocket 3.5 21:34:29 12° SSE 21:39:21 82° ENE 21:44:31 10° NNW
Cosmos 2084 Rocket 3.4 21:42:57 10° NW 21:47:10 87° NE 21:50:19 18° SE
Cosmos 1758 Rocket 3.9 21:46:22 10° N 21:50:39 52° ENE 21:53:42 18° SE
Cosmos 1110 Rocket 4.3 21:47:30 10° SSW 21:52:48 73° WNW 21:58:08 10° NNE
Terra 3.8 21:49:22 10° SW 21:53:08 24° W 21:56:58 10° NW
Helios 1B rocket 4.2 21:51:52 11° E 21:53:56 16° ENE 21:56:08 10° NNE
Cosmos 1833 Rocket 3.6 21:48:49 10° SW 21:54:17 51° NW 21:59:47 10° NNE
IRS-1C Rocket 4.1 21:51:54 15° SSE 21:56:24 89° ENE 22:01:44 10° NNW
CZ-2C R/B 1.9 21:55:17 24° SSE 21:56:46 70° ENE 21:59:33 10° N
YAOGAN 11 4.5 21:52:52 10° N 21:57:14 67° WNW 22:01:38 10° SSW
Cosmos 1802 Rocket 4.2 21:51:16 10° SSW 21:57:27 72° WNW 22:03:37 10° N
Cosmos 1743 3.6 21:55:16 10° NNW 21:58:02 33° W 22:00:44 10° SSW
Gbstr 26 Del rocket 4.0 21:53:51 10° W 21:58:24 35° SSW 22:00:52 19° SSE
Cosmos 2360 Rocket 3.4 21:54:06 10° NNW 21:59:18 35° NE 22:04:14 11° ESE
NOSS 3-3 (C) 4.4 22:02:52 14° S 22:06:40 32° ESE 22:12:04 10° ENE
ISS -2.9 22:04:05 10° SW 22:07:01 29° SSE 22:08:14 23° ESE
Cosmos 2237 4.3 22:03:19 10° NW 22:09:05 79° WSW 22:13:13 20° SSE
USA 305 2.8 22:07:30 10° WNW 22:11:29 51° SSW 22:13:10 27° SSE
Cosmos 44 Rocket 3.4 22:06:38 10° SW 22:11:44 87° SE 22:16:58 10° NE
BREEZE-M R/B 4.5 22:03:06 10° WSW 22:13:56 75° S 22:19:37 10° E
Cosmos 1602 Rocket 3.8 22:12:05 10° N 22:16:20 54° ENE 22:18:42 24° SE
Ariane Rocket 3.2 22:12:25 16° S 22:16:26 66° WSW 22:21:30 10° NNW
Cosmos 2219 Rocket 3.5 22:11:44 10° NNW 22:16:47 32° NE 22:21:47 10° ESE
DEBRIS 3.8 22:13:59 10° WSW 22:17:23 59° SSE 22:28:11 10° E
NOSS 3-4 (A) 4.0 22:12:54 10° NW 22:19:13 63° NE 22:26:00 13° ESE
NOSS 3-4 (C) 4.1 22:13:30 10° NW 22:19:50 63° NE 22:26:40 13° ESE
Cosmos 1437 Rocket 3.0 22:21:47 29° SE 22:23:01 42° E 22:26:25 10° NNE
Cosmos 2369 4.1 22:18:48 10° NW 22:24:24 57° WSW 22:28:18 20° S
Cosmos 2151 2.8 22:22:30 10° N 22:26:41 90° SSE 22:28:56 26° S
Cosmos 2322 Rocket 2.8 22:21:31 10° NNW 22:27:03 51° NE 22:31:03 18° ESE
ATLAS 2AS CENTAUR R/B 3.8 22:23:35 10° W 22:30:14 48° NNW 22:36:48 10° NE
Cosmos 2082 Rocket 2.2 22:24:33 10° SSW 22:30:16 81° ESE 22:36:01 10° NNE
Cosmos 1626 Rocket 3.9 22:30:01 10° NNW 22:34:16 58° W 22:37:03 21° S
Cosmos 2228 4.0 22:32:19 10° SW 22:36:16 43° WNW 22:40:13 10° N
Cosmos 1891 Rocket 4.4 22:31:35 18° S 22:36:16 76° E 22:42:21 10° NNE
Meteor 1-5 Rocket 4.4 22:30:59 10° N 22:36:36 65° ENE 22:40:03 25° SSE
Okean O Rocket 4.0 22:36:48 10° SW 22:39:28 16° W 22:42:08 10° NW
USA 234 4.0 22:34:36 10° ENE 22:40:10 29° SE 22:42:48 22° SSE
Cosmos 1607 3.9 22:37:45 10° SW 22:43:57 86° SE 22:50:16 10° NE
Okean 1-7 Rocket 3.7 22:40:39 10° N 22:45:05 65° ENE 22:47:08 31° SSE
Cosmos 1503 Rocket 4.5 22:40:54 10° NNW 22:46:00 51° ENE 22:49:02 23° SE
Cosmos 2278 3.7 22:40:32 10° NNW 22:46:17 83° ENE 22:49:38 26° SE
Cosmos 1777 Rocket 4.2 22:41:06 10° NNW 22:46:20 63° ENE 22:49:16 26° SE
Helios 1A 3.2 22:43:43 10° NNE 22:47:32 47° E 22:48:44 34° SSE
Cosmos 909 Rocket 4.0 22:42:20 10° SSW 22:48:37 76° SE 22:55:11 10° NE
Cosmos 1805 2.7 22:46:51 10° N 22:50:09 82° E 22:51:00 47° SSE
Cosmos 1992 Rocket 3.9 22:45:56 14° SSW 22:50:30 88° ESE 22:55:45 10° NNE
BREEZE-M DEB (TANK) 3.7 22:49:08 10° WSW 22:49:34 13° WSW 22:49:34 13° WSW
COSMOS 2406 3.2 22:49:26 19° SSW 22:53:34 64° ESE 22:59:16 10° NE
SL-16 R/B 2.2 22:48:00 10° NW 22:53:42 74° WSW 22:56:47 28° SSE
Cosmos 1606 Rocket 3.9 22:52:45 32° SSE 22:54:19 48° E 22:58:30 10° NNE
CZ-4C R/B 2.7 22:51:16 10° WSW 22:55:45 56° NNW 23:01:37 10° NE
Cosmos 1486 Rocket 4.0 22:52:52 10° NNW 22:58:08 84° ENE 23:00:50 30° SSE
Nadezhda 4 Rocket 3.9 22:53:08 10° N 22:59:18 86° E 23:02:51 27° SSE
Cosmos 1766 4.2 22:57:55 10° NNE 23:00:40 25° ENE 23:01:17 23° E
CSL-04 DEB 4.1 23:00:26 41° SE 23:01:28 65° ENE 23:05:03 10° N
EP 1 4.0 22:59:14 10° NW 23:01:51 87° NNE 23:01:54 85° ESE
Cosmos 2098 Rocket 3.2 23:02:09 28° S 23:04:53 82° E 23:09:27 10° NNE
Cosmos 2333 Rocket 2.3 23:01:06 10° NW 23:06:46 68° WSW 23:09:39 30° S
Cosmos 1726 Rocket 3.8 23:06:20 37° SE 23:07:24 46° E 23:11:18 10° NNE
SeaSat 1 4.1 23:04:04 10° E 23:08:15 29° NE 23:12:26 10° NNW
Cosmos 1076 Rocket 3.5 23:05:49 10° N 23:10:07 70° ENE 23:11:38 38° SSE
BREEZE-M DEB (TANK) 3.9 23:05:38 10° WSW 23:15:38 56° S 23:20:29 10° E
Cosmos 1980 Rocket 4.4 23:13:17 10° WNW 23:16:12 14° W 23:19:06 10° SW
Cosmos 2195 Rocket 4.5 23:11:06 10° N 23:17:24 82° ENE 23:20:43 30° SSE
CZ-2C R/B 4.1 23:16:22 14° ESE 23:19:54 27° ENE 23:24:16 10° N
Cosmos 1933 4.2 23:19:12 22° SW 23:21:17 42° WNW 23:24:57 10° N
Cosmos 2026 Rocket 4.0 23:17:30 10° N 23:23:54 79° ENE 23:27:17 30° SSE
Okean 1 2.9 23:23:58 55° SSE 23:24:39 76° E 23:28:14 10° NNE
Spot 4 3.9 23:23:21 34° SE 23:25:21 69° ENE 23:30:08 10° N
Helios 1B rocket 2.3 23:25:48 46° SSW 23:26:32 58° WSW 23:30:01 10° NNW
SAR-Lupe-2 4.1 23:26:37 36° E 23:27:14 41° ENE 23:30:24 10° N
Aureole 1 Rocket 4.2 23:23:23 10° NNW 23:28:21 53° ENE 23:32:02 23° SE
NOSS 3-3 (A) 3.9 23:23:36 10° SW 23:28:58 80° NW 23:35:33 10° NE
DNEPR-1 R/B 4.4 23:25:20 10° NW 23:30:38 63° SW 23:33:34 32° SSE
Cosmos 44 4.1 23:28:43 10° NW 23:34:04 54° NE 23:38:08 17° ESE
Cosmos 2333 4.2 23:31:09 10° NW 23:36:52 77° WSW 23:39:28 34° SSE
Cosmos 1271 Rocket 4.3 23:38:07 18° E 23:38:07 18° E 23:40:29 10° NE
RESURS DK-1 4.1 23:37:57 10° NNW 23:41:21 26° NE 23:44:13 13° E
Cosmos 1464 Rocket 4.3 23:38:02 22° SSW 23:42:06 63° WNW 23:48:14 10° N
Cosmos 1375 Rocket 4.5 23:37:40 18° SSW 23:42:45 81° SE 23:49:23 10° NE
ISS -1.9 23:40:12 10° WSW 23:41:23 20° WSW 23:41:23 20° WSW
Cosmos 2360 Rocket 2.4 23:38:02 10° NW 23:43:38 61° WSW 23:45:58 34° S
Cosmos 1825 Rocket 4.3 23:40:33 10° NNW 23:44:38 42° W 23:46:09 30° SW
ALOS 2 2.5 23:43:55 43° SSE 23:45:20 84° ENE 23:49:46 10° NNW
ARIANE 5 R/B 2.6 23:44:33 43° S 23:45:58 81° WSW 23:50:26 10° NNW
Cosmos 1953 Rocket 3.7 23:42:07 10° NNW 23:46:28 66° W 23:47:47 42° SSW
Meteor 1-26 Rocket 4.2 23:45:25 35° S 23:47:44 72° E 23:53:21 10° NNE
GP-B 4.5 23:44:06 10° NNE 23:47:51 27° E 23:49:14 22° ESE
Cosmos 2058 Rocket 3.1 23:48:52 45° SSE 23:50:00 63° E 23:54:18 10° NNE
